SCP
0 0 0 0 0 0 0 0 0 -0 2 2 2 2 1 1 1 1 1 1 1 1 1 1 1 1 1 0 0 0 0 0 0 0 0 0 0 0 0 0 0 0 0
0 0 0 0 0 0 0 -0 0 -0 1 1 1 1 1 1 1 1 1 0 1 1 1 1 1 1 1 1 0 0 0 0 0 0 0 0 0 0 0 -0 0 0 0
0 0 0 0 0 0 0 0 0 -0 1 2 1 2 1 1 1 1 1 1 1 1 1 1 1 0 0 0 0 0 0 0 0 0 0 0 0 0 0 0 0 0 0
0 0 0 -0 0 0 0 -0 -0 0 0 1 1 1 1 1 1 2 1 1 1 1 1 0 0 0 0 0 0 0 0 0 0 0 0 0 1 1 0 0 0 0 0
1 1 0 -0 -0 0 -0 -0 -0 0 0 1 1 1 0 1 1 1 0 0 0 0 0 0 0 0 0 0 0 0 0 0 0 0 0 0 0 0 0 0 0 0 0
1 0 0 0 0 0 0 0 1 0 1 0 0 1 1 1 0 0 0 0 0 0 0 0 0 0 0 0 0 0 0 0 0 0 0 0 0 0 0 0 0 0 0
0 0 0 0 0 0 0 1 0 0 0 0 0 0 0 0 0 0 0 0 0 0 0 0 0 0 0 0 0 0 0 0 0 0 0 0 0 0 0 0 0 0 0
0 0 0 0 0 1 0 0 0 0 0 0 0 0 0 0 0 0 0 0 0 0 0 0 0 0 0 0 0 0 0 0 0 0 0 0 0 0 0 0 0 0 0
0 0 0 1 1 0 0 0 0 0 -0 0 0 0 0 0 0 0 0 0 0 0 0 0 0 0 0 0 0 0 0 0 0 0 0 0 0 0 0 0 0 0 0
1 1 1 1 0 0 0 -0 0 -0 0 0 0 0 0 0 0 0 0 0 0 0 0 0 0 0 0 0 0 0 0 0 0 0 0 0 0 0 0 0 0 0 0
1 1 0 0 0 0 -0 -0 0 0 0 0 0 0 0 0 0 0 0 0 0 0 0 0 0 0 0 0 0 0 0 0 0 0 0 0 0 0 0 0 0 0 0
0 0 0 0 0 0 0 0 0 0 0 0 0 0 0 0 0 0 0 0 0 0 0 0 0 0 0 0 0 0 0 0 0 0 0 0 0 0 0 0 0 0 0
0 0 0 0 0 0 0 0 0 0 0 0 0 0 0 0 0 0 0 0 0 0 0 0 0 0 0 0 0 0 0 0 0 0 0 0 0 0 0 0 0 0 0
0 0 0 0 0 0 0 0 0 0 0 0 0 0 0 0 0 0 0 0 0 0 0 0 0 0 0 0 0 0 0 0 0 0 0 0 0 0 0 0 0 0 0
0 0 0 0 0 0 0 0 0 0 0 0 0 0 0 0 0 0 0 0 0 0 0 0 0 0 0 0 0 0 0 0 0 0 0 0 0 0 0 0 0 0 0
0 0 0 0 0 0 0 0 0 0 0 0 0 -0 -0 0 0 0 0 0 0 0 0 0 0 0 0 0 0 0 0 0 -0 0 0 0 0 0 0 0 0 0 0
0 0 0 0 0 0 0 0 0 0 0 0 0 0 0 0 0 0 0 0 0 0 0 0 0 0 0 0 0 -0 -0 0 0 0 0 0 0 0 0 0 0 0 0
0 0 0 0 0 0 0 0 0 0 0 0 0 0 0 0 0 0 0 0 0 0 0 0 0 0 0 0 0 0 0 0 0 0 0 0 0 0 0 0 0 0 0
0 0 0 0 0 0 0 0 0 0 0 0 0 0 0 0 0 0 0 0 0 0 0 0 0 0 0 0 0 0 0 0 0 0 0 0 0 -0 -0 0 0 0 0
0 0 0 0 0 0 0 0 0 0 0 0 0 0 0 0 0 0 0 0 0 0 0 0 0 0 0 0 0 0 0 0 0 0 0 0 0 0 0 0 0 0 0
0 0 0 0 0 0 0 0 0 0 0 0 0 0 0 0 0 0 0 0 0 0 0 0 0 0 0 0 0 0 0 0 0 0 0 0 0 0 0 0 0 0 0
0 0 0 0 0 0 0 0 0 0 0 0 0 0 0 0 0 0 0 0 0 0 0 0 0 0 0 0 0 0 0 0 0 0 0 0 0 0 0 0 0 0 0
0 0 0 0 0 0 0 0 0 0 0 0 0 0 0 0 0 0 0 0 0 0 0 0 0 0 0 0 0 0 0 0 0 0 0 0 0 0 0 0 0 0 0
0 0 0 0 0 0 0 0 0 0 0 0 0 0 0 0 0 0 0 0 0 0 0 0 0 0 0 0 0 0 0 0 0 0 0 0 0 0 0 0 0 0 0
0 0 0 0 0 0 0 0 0 0 0 0 0 0 0 0 0 0 0 0 0 0 0 0 0 0 0 0 0 0 0 0 0 0 0 0 0 0 0 0 0 0 0
0 0 0 0 0 0 0 0 0 0 0 0 0 0 0 0 0 0 0 0 0 0 0 0 0 0 0 0 0 0 0 0 0 -0 0 0 0 0 0 0 0 0 0
Wind_Speed_500mb
66 57 60 47 68 61 27 28 41 42 49 52 53 53 46 43 39 31 23 22 24 29 34 36 35 30 31 28 32 36 44 54 55 57 57 60 69 63 81 60 59 59 56
55 60 56 46 26 52 50 88 61 54 49 44 28 34 40 35 30 31 21 14 15 20 22 20 21 25 24 29 36 43 40 45 51 51 55 51 78 46 29 40 51 55 49
65 61 59 46 36 44 27 73 32 32 38 34 28 22 18 21 26 26 24 25 23 27 26 27 27 23 24 39 37 41 40 48 51 51 35 21 15 37 63 59 59 59 66
67 59 50 47 41 63 36 56 67 45 45 36 33 28 29 15 15 11 13 17 17 21 27 25 31 29 36 36 37 43 41 32 33 42 28 25 34 39 39 54 60 63 59
62 57 47 39 36 65 37 38 43 41 36 33 26 22 19 16 21 16 15 19 20 21 21 18 23 18 21 24 22 15 21 23 26 34 38 41 39 33 40 43 49 65 64
65 63 51 54 45 48 52 45 33 25 20 15 11 12 11 14 20 22 19 13 11 14 10 11 11 11 13 19 21 23 25 23 25 27 32 32 30 37 38 53 62 66 74
81 73 60 48 50 47 42 39 41 36 32 22 16 12 8 9 14 10 4 7 3 7 7 10 13 15 16 17 18 21 23 26 28 29 28 28 29 34 40 48 62 69 82
87 78 63 59 52 51 54 50 41 37 32 30 22 10 4 3 3 5 5 2 3 6 11 16 19 20 22 26 28 31 32 32 32 33 34 35 36 38 40 42 50 69 57
76 75 65 58 59 58 54 43 38 31 27 23 19 13 9 5 11 7 4 4 8 13 19 21 25 27 29 31 34 36 36 37 37 36 35 34 35 38 41 43 44 46 46
49 55 58 64 71 69 60 47 41 31 27 23 18 13 10 10 8 3 10 10 12 13 15 21 24 25 28 32 34 36 37 36 33 32 33 35 37 36 35 34 37 38 39
75 76 78 81 81 75 65 57 46 41 35 25 21 17 14 10 7 6 6 8 10 12 16 20 24 29 32 34 35 32 30 30 29 28 30 32 32 32 31 33 40 41 47
90 92 90 85 79 73 64 53 45 39 31 23 21 23 19 14 9 8 10 13 16 18 21 22 25 28 32 33 33 31 29 30 32 35 36 37 39 34 38 42 46 53 58
90 92 90 83 75 67 56 47 37 33 34 29 25 21 16 11 11 13 16 18 18 17 20 21 25 29 31 31 27 27 31 32 29 31 34 37 38 43 51 56 61 64 68
92 92 86 79 69 59 52 47 45 37 32 26 22 19 16 16 18 19 21 20 19 19 21 23 24 26 24 27 27 27 27 24 25 28 29 31 36 48 55 55 58 64 67
76 87 85 78 69 62 55 48 43 36 27 20 17 19 20 21 22 25 26 22 19 19 22 25 23 20 23 30 32 33 31 26 26 27 30 32 38 46 47 52 58 60 60
81 88 85 75 64 58 52 45 36 29 19 18 19 17 18 21 25 26 25 19 17 18 21 25 24 23 28 34 37 35 32 29 29 30 31 36 41 47 46 50 46 52 61
88 90 78 68 64 55 45 38 30 23 18 16 14 15 17 19 21 21 18 16 17 17 18 19 22 26 29 33 32 30 29 26 30 36 39 39 45 48 49 47 52 53 58
92 81 73 68 57 48 40 33 24 19 16 15 12 12 15 18 18 15 16 14 13 16 21 21 21 26 28 31 31 29 24 25 33 36 39 43 46 52 54 55 56 55 59
84 77 69 61 52 43 34 26 21 15 14 13 9 11 13 16 17 15 18 25 26 19 17 15 18 23 25 28 29 25 23 28 32 32 38 42 46 54 54 56 61 59 59
77 74 65 57 47 36 25 18 14 11 14 13 11 11 12 18 19 24 29 18 12 12 7 12 17 22 24 25 27 29 28 31 31 36 39 41 43 50 51 58 63 68 63
79 70 60 51 40 30 19 15 15 13 12 12 11 10 13 20 25 27 20 12 12 9 5 9 16 20 25 26 23 27 32 35 36 38 40 41 43 43 48 52 56 61 59
76 63 57 46 34 22 15 20 17 13 7 8 11 10 14 18 22 18 13 10 13 7 5 3 8 15 20 24 23 26 30 30 32 35 34 34 34 36 41 49 50 54 59
69 58 49 41 31 23 16 18 20 13 6 8 14 15 12 14 10 9 9 13 13 9 10 8 8 12 14 17 22 25 24 23 27 33 35 34 35 33 34 38 44 52 60
60 54 50 41 32 23 19 15 15 10 12 10 10 13 13 15 8 3 8 14 13 10 8 6 6 9 10 12 22 25 28 26 27 33 39 40 42 43 38 33 39 47 59
56 49 43 35 28 22 19 16 13 13 13 12 8 7 10 13 11 2 6 12 13 10 6 4 4 5 10 19 27 27 29 32 36 38 42 45 47 47 46 42 36 40 48
48 43 36 31 26 18 13 11 9 9 10 10 8 10 15 16 5 2 6 12 15 17 9 10 7 9 19 22 20 21 26 32 37 40 46 49 52 52 51 48 40 38 44
Wind_Direction_500mb
158 164 164 150 188 194 29 228 222 212 208 207 210 214 216 217 228 238 253 268 282 284 286 291 289 292 290 292 284 279 272 284 289 288 287 304 296 278 299 267 287 277 294
176 178 185 200 232 212 244 228 264 239 203 212 210 227 234 242 240 245 257 274 300 296 284 279 283 283 294 295 288 295 290 283 287 300 293 316 311 316 285 289 284 288 287
169 175 191 184 159 169 163 216 220 235 230 223 207 197 222 239 229 236 238 255 279 279 277 274 272 280 286 304 297 293 294 289 291 291 304 298 288 300 301 297 298 294 283
160 156 161 154 174 188 206 166 199 207 224 231 220 218 210 208 178 175 218 241 271 264 257 274 289 303 278 289 297 297 294 294 303 304 339 325 318 303 303 303 296 297 297
167 163 168 164 164 181 175 194 211 211 219 223 226 232 267 264 253 266 264 278 281 288 300 293 297 294 286 290 286 306 321 328 312 309 311 311 317 315 316 311 302 295 295
170 168 173 168 170 167 166 171 170 170 170 165 179 200 201 239 260 273 288 299 299 302 323 329 319 311 306 303 315 319 314 318 311 307 305 311 321 312 321 311 306 302 298
172 176 177 176 171 167 158 155 160 155 160 160 167 184 207 266 280 268 236 164 217 302 306 319 319 325 331 328 324 324 327 326 320 313 312 311 312 310 305 305 306 308 306
178 180 181 181 177 166 156 155 161 161 166 170 160 157 136 86 130 150 169 130 51 350 339 325 318 327 334 335 336 334 332 327 324 320 318 318 315 314 317 317 316 316 313
187 180 177 177 174 169 158 155 160 166 164 150 157 159 137 125 133 128 102 53 3 333 320 318 329 332 327 325 325 326 328 332 328 327 328 328 326 326 324 323 323 320 317
143 147 149 157 161 157 156 161 162 165 159 154 155 158 149 145 124 94 304 330 342 331 324 319 319 320 326 330 333 335 335 333 334 339 340 341 340 338 340 345 347 345 330
124 130 138 143 144 147 150 147 148 149 152 152 142 142 132 113 71 330 349 353 354 337 324 329 333 339 339 339 342 347 349 348 350 351 354 352 350 350 349 349 348 345 342
123 128 133 135 136 134 134 139 141 139 132 128 122 107 99 85 60 28 1 350 347 347 341 339 338 343 350 356 1 8 9 7 2 1 3 4 2 4 356 352 347 342 338
117 122 128 128 129 131 134 133 128 122 114 109 99 89 71 45 23 13 6 2 356 349 354 353 359 5 6 9 12 13 9 6 7 8 13 7 5 360 356 354 349 344 336
123 124 127 129 130 129 127 125 121 117 110 101 89 75 55 38 30 20 15 13 7 7 12 7 2 7 19 15 16 10 6 5 4 7 7 7 360 359 356 352 346 341 338
121 128 131 130 130 127 127 127 121 114 102 86 71 54 43 33 25 19 15 23 32 35 28 27 32 36 25 21 13 8 2 358 1 8 8 7 3 3 353 350 349 348 350
125 129 132 130 129 131 130 124 111 96 77 66 57 46 29 25 20 21 24 32 39 40 34 33 37 34 28 17 17 18 23 23 24 23 19 12 11 7 8 6 1 5 3
131 133 135 136 135 133 130 121 111 100 84 72 56 37 31 21 19 13 17 39 55 43 35 42 38 36 19 23 20 23 23 31 31 22 24 19 15 7 8 14 13 12 14
138 140 139 137 136 135 131 120 106 86 73 61 53 42 22 19 17 20 55 57 54 68 75 66 42 21 16 33 34 36 34 38 27 26 23 25 18 10 8 7 10 7 2
143 140 139 136 135 134 128 119 109 93 72 76 74 42 34 31 32 66 72 87 94 96 81 65 39 26 25 36 39 40 45 40 36 34 32 25 18 19 12 9 12 13 6
139 137 137 137 137 135 135 129 107 92 94 89 58 51 50 42 75 89 100 85 83 86 70 74 43 31 21 39 49 49 40 50 52 42 36 26 20 13 15 22 18 11 8
143 144 143 142 142 145 146 133 131 121 104 80 57 75 60 63 91 101 110 79 80 82 53 3 23 23 34 47 44 41 41 42 38 34 31 25 20 16 16 22 22 17 14
146 150 147 145 143 143 153 143 134 130 115 78 79 82 78 84 85 95 79 42 17 18 22 30 35 37 41 49 46 34 31 30 28 25 20 14 7 7 11 20 20 17 24
150 155 154 148 145 142 147 146 142 147 132 107 88 93 98 106 94 80 55 14 27 48 81 93 84 65 56 44 37 32 20 16 19 12 8 7 3 3 9 20 17 18 19
150 156 155 150 142 140 144 151 146 143 136 120 101 85 88 143 148 107 50 12 25 39 69 91 84 54 48 40 32 24 20 16 6 4 4 4 4 8 13 16 22 21 22
147 150 149 145 140 138 140 149 156 156 144 133 113 75 92 142 154 124 1 0 10 14 35 39 62 42 23 26 23 14 11 3 359 354 353 0 6 7 10 19 24 24 21
138 137 136 131 131 133 133 137 150 174 171 150 114 105 130 143 123 48 348 343 354 0 43 20 17 29 28 25 22 17 359 350 348 349 1 7 11 13 14 15 23 28 22
Wind_Speed_850mb
66 57 60 47 68 61 27 28 41 42 49 52 53 53 46 43 39 31 23 22 24 29 34 36 35 30 31 28 32 36 44 54 55 57 57 60 69 63 81 60 59 59 56
55 60 56 46 26 52 50 88 61 54 49 44 28 34 40 35 30 31 21 14 15 20 22 20 21 25 24 29 36 43 40 45 51 51 55 51 78 46 29 40 51 55 49
65 61 59 46 36 44 27 73 32 32 38 34 28 22 18 21 26 26 24 25 23 27 26 27 27 23 24 39 37 41 40 48 51 51 35 21 15 37 63 59 59 59 66
67 59 50 47 41 63 36 56 67 45 45 36 33 28 29 15 15 11 13 17 17 21 27 25 31 29 36 36 37 43 41 32 33 42 28 25 34 39 39 54 60 63 59
62 57 47 39 36 65 37 38 43 41 36 33 26 22 19 16 21 16 15 19 20 21 21 18 23 18 21 24 22 15 21 23 26 34 38 41 39 33 40 43 49 65 64
65 63 51 54 45 48 52 45 33 25 20 15 11 12 11 14 20 22 19 13 11 14 10 11 11 11 13 19 21 23 25 23 25 27 32 32 30 37 38 53 62 66 74
81 73 60 48 50 47 42 39 41 36 32 22 16 12 8 9 14 10 4 7 3 7 7 10 13 15 16 17 18 21 23 26 28 29 28 28 29 34 40 48 62 69 82
87 78 63 59 52 51 54 50 41 37 32 30 22 10 4 3 3 5 5 2 3 6 11 16 19 20 22 26 28 31 32 32 32 33 34 35 36 38 40 42 50 69 57
76 75 65 58 59 58 54 43 38 31 27 23 19 13 9 5 11 7 4 4 8 13 19 21 25 27 29 31 34 36 36 37 37 36 35 34 35 38 41 43 44 46 46
49 55 58 64 71 69 60 47 41 31 27 23 18 13 10 10 8 3 10 10 12 13 15 21 24 25 28 32 34 36 37 36 33 32 33 35 37 36 35 34 37 38 39
75 76 78 81 81 75 65 57 46 41 35 25 21 17 14 10 7 6 6 8 10 12 16 20 24 29 32 34 35 32 30 30 29 28 30 32 32 32 31 33 40 41 47
90 92 90 85 79 73 64 53 45 39 31 23 21 23 19 14 9 8 10 13 16 18 21 22 25 28 32 33 33 31 29 30 32 35 36 37 39 34 38 42 46 53 58
90 92 90 83 75 67 56 47 37 33 34 29 25 21 16 11 11 13 16 18 18 17 20 21 25 29 31 31 27 27 31 32 29 31 34 37 38 43 51 56 61 64 68
92 92 86 79 69 59 52 47 45 37 32 26 22 19 16 16 18 19 21 20 19 19 21 23 24 26 24 27 27 27 27 24 25 28 29 31 36 48 55 55 58 64 67
76 87 85 78 69 62 55 48 43 36 27 20 17 19 20 21 22 25 26 22 19 19 22 25 23 20 23 30 32 33 31 26 26 27 30 32 38 46 47 52 58 60 60
81 88 85 75 64 58 52 45 36 29 19 18 19 17 18 21 25 26 25 19 17 18 21 25 24 23 28 34 37 35 32 29 29 30 31 36 41 47 46 50 46 52 61
88 90 78 68 64 55 45 38 30 23 18 16 14 15 17 19 21 21 18 16 17 17 18 19 22 26 29 33 32 30 29 26 30 36 39 39 45 48 49 47 52 53 58
92 81 73 68 57 48 40 33 24 19 16 15 12 12 15 18 18 15 16 14 13 16 21 21 21 26 28 31 31 29 24 25 33 36 39 43 46 52 54 55 56 55 59
84 77 69 61 52 43 34 26 21 15 14 13 9 11 13 16 17 15 18 25 26 19 17 15 18 23 25 28 29 25 23 28 32 32 38 42 46 54 54 56 61 59 59
77 74 65 57 47 36 25 18 14 11 14 13 11 11 12 18 19 24 29 18 12 12 7 12 17 22 24 25 27 29 28 31 31 36 39 41 43 50 51 58 63 68 63
79 70 60 51 40 30 19 15 15 13 12 12 11 10 13 20 25 27 20 12 12 9 5 9 16 20 25 26 23 27 32 35 36 38 40 41 43 43 48 52 56 61 59
76 63 57 46 34 22 15 20 17 13 7 8 11 10 14 18 22 18 13 10 13 7 5 3 8 15 20 24 23 26 30 30 32 35 34 34 34 36 41 49 50 54 59
69 58 49 41 31 23 16 18 20 13 6 8 14 15 12 14 10 9 9 13 13 9 10 8 8 12 14 17 22 25 24 23 27 33 35 34 35 33 34 38 44 52 60
60 54 50 41 32 23 19 15 15 10 12 10 10 13 13 15 8 3 8 14 13 10 8 6 6 9 10 12 22 25 28 26 27 33 39 40 42 43 38 33 39 47 59
56 49 43 35 28 22 19 16 13 13 13 12 8 7 10 13 11 2 6 12 13 10 6 4 4 5 10 19 27 27 29 32 36 38 42 45 47 47 46 42 36 40 48
48 43 36 31 26 18 13 11 9 9 10 10 8 10 15 16 5 2 6 12 15 17 9 10 7 9 19 22 20 21 26 32 37 40 46 49 52 52 51 48 40 38 44
Wind_Direction_850mb
158 164 164 150 188 194 29 228 222 212 208 207 210 214 216 217 228 238 253 268 282 284 286 291 289 292 290 292 284 279 272 284 289 288 287 304 296 278 299 267 287 277 294
176 178 185 200 232 212 244 228 264 239 203 212 210 227 234 242 240 245 257 274 300 296 284 279 283 283 294 295 288 295 290 283 287 300 293 316 311 316 285 289 284 288 287
169 175 191 184 159 169 163 216 220 235 230 223 207 197 222 239 229 236 238 255 279 279 277 274 272 280 286 304 297 293 294 289 291 291 304 298 288 300 301 297 298 294 283
160 156 161 154 174 188 206 166 199 207 224 231 220 218 210 208 178 175 218 241 271 264 257 274 289 303 278 289 297 297 294 294 303 304 339 325 318 303 303 303 296 297 297
167 163 168 164 164 181 175 194 211 211 219 223 226 232 267 264 253 266 264 278 281 288 300 293 297 294 286 290 286 306 321 328 312 309 311 311 317 315 316 311 302 295 295
170 168 173 168 170 167 166 171 170 170 170 165 179 200 201 239 260 273 288 299 299 302 323 329 319 311 306 303 315 319 314 318 311 307 305 311 321 312 321 311 306 302 298
172 176 177 176 171 167 158 155 160 155 160 160 167 184 207 266 280 268 236 164 217 302 306 319 319 325 331 328 324 324 327 326 320 313 312 311 312 310 305 305 306 308 306
178 180 181 181 177 166 156 155 161 161 166 170 160 157 136 86 130 150 169 130 51 350 339 325 318 327 334 335 336 334 332 327 324 320 318 318 315 314 317 317 316 316 313
187 180 177 177 174 169 158 155 160 166 164 150 157 159 137 125 133 128 102 53 3 333 320 318 329 332 327 325 325 326 328 332 328 327 328 328 326 326 324 323 323 320 317
143 147 149 157 161 157 156 161 162 165 159 154 155 158 149 145 124 94 304 330 342 331 324 319 319 320 326 330 333 335 335 333 334 339 340 341 340 338 340 345 347 345 330
124 130 138 143 144 147 150 147 148 149 152 152 142 142 132 113 71 330 349 353 354 337 324 329 333 339 339 339 342 347 349 348 350 351 354 352 350 350 349 349 348 345 342
123 128 133 135 136 134 134 139 141 139 132 128 122 107 99 85 60 28 1 350 347 347 341 339 338 343 350 356 1 8 9 7 2 1 3 4 2 4 356 352 347 342 338
117 122 128 128 129 131 134 133 128 122 114 109 99 89 71 45 23 13 6 2 356 349 354 353 359 5 6 9 12 13 9 6 7 8 13 7 5 360 356 354 349 344 336
123 124 127 129 130 129 127 125 121 117 110 101 89 75 55 38 30 20 15 13 7 7 12 7 2 7 19 15 16 10 6 5 4 7 7 7 360 359 356 352 346 341 338
121 128 131 130 130 127 127 127 121 114 102 86 71 54 43 33 25 19 15 23 32 35 28 27 32 36 25 21 13 8 2 358 1 8 8 7 3 3 353 350 349 348 350
125 129 132 130 129 131 130 124 111 96 77 66 57 46 29 25 20 21 24 32 39 40 34 33 37 34 28 17 17 18 23 23 24 23 19 12 11 7 8 6 1 5 3
131 133 135 136 135 133 130 121 111 100 84 72 56 37 31 21 19 13 17 39 55 43 35 42 38 36 19 23 20 23 23 31 31 22 24 19 15 7 8 14 13 12 14
138 140 139 137 136 135 131 120 106 86 73 61 53 42 22 19 17 20 55 57 54 68 75 66 42 21 16 33 34 36 34 38 27 26 23 25 18 10 8 7 10 7 2
143 140 139 136 135 134 128 119 109 93 72 76 74 42 34 31 32 66 72 87 94 96 81 65 39 26 25 36 39 40 45 40 36 34 32 25 18 19 12 9 12 13 6
139 137 137 137 137 135 135 129 107 92 94 89 58 51 50 42 75 89 100 85 83 86 70 74 43 31 21 39 49 49 40 50 52 42 36 26 20 13 15 22 18 11 8
143 144 143 142 142 145 146 133 131 121 104 80 57 75 60 63 91 101 110 79 80 82 53 3 23 23 34 47 44 41 41 42 38 34 31 25 20 16 16 22 22 17 14
146 150 147 145 143 143 153 143 134 130 115 78 79 82 78 84 85 95 79 42 17 18 22 30 35 37 41 49 46 34 31 30 28 25 20 14 7 7 11 20 20 17 24
150 155 154 148 145 142 147 146 142 147 132 107 88 93 98 106 94 80 55 14 27 48 81 93 84 65 56 44 37 32 20 16 19 12 8 7 3 3 9 20 17 18 19
150 156 155 150 142 140 144 151 146 143 136 120 101 85 88 143 148 107 50 12 25 39 69 91 84 54 48 40 32 24 20 16 6 4 4 4 4 8 13 16 22 21 22
147 150 149 145 140 138 140 149 156 156 144 133 113 75 92 142 154 124 1 0 10 14 35 39 62 42 23 26 23 14 11 3 359 354 353 0 6 7 10 19 24 24 21
138 137 136 131 131 133 133 137 150 174 171 150 114 105 130 143 123 48 348 343 354 0 43 20 17 29 28 25 22 17 359 350 348 349 1 7 11 13 14 15 23 28 22